Time,TemperatureF,DewpointF,PressureIn,WindDirection,WindDirectionDegrees,WindSpeedMPH,WindSpeedGustMPH,Humidity,HourlyPrecipIn,Conditions,Clouds,dailyrainin,SoftwareType,DateUTC
2013-02-16 00:02:00,20.0,16.0,-100.00,North,-999,-999.0,-999.0,86,-99.99,,,-99.99,,2013-02-16 07:02:00,
2013-02-16 00:11:00,20.0,16.0,-100.00,North,-999,-999.0,-999.0,86,-99.99,,,-99.99,,2013-02-16 07:11:00,
2013-02-16 00:21:00,20.0,16.0,-100.00,North,-999,-999.0,-999.0,86,-99.99,,,-99.99,,2013-02-16 07:21:00,
2013-02-16 00:31:00,20.0,16.0,-100.00,North,-999,-999.0,-999.0,85,-99.99,,,-99.99,,2013-02-16 07:31:00,
2013-02-16 00:42:00,20.0,16.0,-100.00,North,-999,-999.0,-999.0,85,-99.99,,,-99.99,,2013-02-16 07:42:00,
2013-02-16 00:53:00,20.0,16.0,-100.00,North,-999,-999.0,-999.0,86,-99.99,,,-99.99,,2013-02-16 07:53:00,
2013-02-16 01:01:00,20.0,16.0,-100.00,North,-999,-999.0,-999.0,86,-99.99,,,-99.99,,2013-02-16 08:01:00,
2013-02-16 01:11:00,20.0,16.0,-100.00,North,-999,-999.0,-999.0,86,-99.99,,,-99.99,,2013-02-16 08:11:00,
2013-02-16 01:21:00,19.0,16.0,-100.00,North,-999,-999.0,-999.0,88,-99.99,,,-99.99,,2013-02-16 08:21:00,
2013-02-16 01:31:00,19.0,17.0,-100.00,North,-999,-999.0,-999.0,90,-99.99,,,-99.99,,2013-02-16 08:31:00,
2013-02-16 01:41:00,19.0,17.0,-100.00,North,-999,-999.0,-999.0,90,-99.99,,,-99.99,,2013-02-16 08:41:00,
2013-02-16 01:52:00,18.0,16.0,-100.00,North,-999,-999.0,-999.0,91,-99.99,,,-99.99,,2013-02-16 08:52:00,
2013-02-16 02:01:00,19.0,17.0,-100.00,North,-999,-999.0,-999.0,92,-99.99,,,-99.99,,2013-02-16 09:01:00,
2013-02-16 02:11:00,19.0,17.0,-100.00,North,-999,-999.0,-999.0,92,-99.99,,,-99.99,,2013-02-16 09:11:00,
2013-02-16 02:21:00,19.0,17.0,-100.00,North,-999,-999.0,-999.0,92,-99.99,,,-99.99,,2013-02-16 09:21:00,
2013-02-16 02:31:00,19.0,17.0,-100.00,North,-999,-999.0,-999.0,92,-99.99,,,-99.99,,2013-02-16 09:31:00,
2013-02-16 02:42:00,19.0,17.0,-100.00,North,-999,-999.0,-999.0,92,-99.99,,,-99.99,,2013-02-16 09:42:00,
2013-02-16 02:52:00,19.0,17.0,-100.00,North,-999,-999.0,-999.0,93,-99.99,,,-99.99,,2013-02-16 09:52:00,
2013-02-16 03:01:00,19.0,17.0,-100.00,North,-999,-999.0,-999.0,92,-99.99,,,-99.99,,2013-02-16 10:01:00,
2013-02-16 03:11:00,19.0,17.0,-100.00,North,-999,-999.0,-999.0,92,-99.99,,,-99.99,,2013-02-16 10:11:00,
2013-02-16 03:21:00,19.0,17.0,-100.00,North,-999,-999.0,-999.0,93,-99.99,,,-99.99,,2013-02-16 10:21:00,
2013-02-16 03:31:00,19.0,18.0,-100.00,North,-999,-999.0,-999.0,94,-99.99,,,-99.99,,2013-02-16 10:31:00,
2013-02-16 03:41:00,19.0,18.0,-100.00,North,-999,-999.0,-999.0,94,-99.99,,,-99.99,,2013-02-16 10:41:00,
2013-02-16 03:52:00,18.0,16.0,-100.00,North,-999,-999.0,-999.0,93,-99.99,,,-99.99,,2013-02-16 10:52:00,
2013-02-16 04:02:00,18.0,17.0,-100.00,North,-999,-999.0,-999.0,94,-99.99,,,-99.99,,2013-02-16 11:02:00,
2013-02-16 04:11:00,18.0,17.0,-100.00,North,-999,-999.0,-999.0,94,-99.99,,,-99.99,,2013-02-16 11:11:00,
2013-02-16 04:22:00,18.0,17.0,-100.00,North,-999,-999.0,-999.0,94,-99.99,,,-99.99,,2013-02-16 11:22:00,
2013-02-16 04:31:00,19.0,18.0,-100.00,North,-999,-999.0,-999.0,94,-99.99,,,-99.99,,2013-02-16 11:31:00,
2013-02-16 04:42:00,19.0,18.0,-100.00,North,-999,-999.0,-999.0,94,-99.99,,,-99.99,,2013-02-16 11:42:00,
2013-02-16 04:52:00,19.0,17.0,-100.00,North,-999,-999.0,-999.0,93,-99.99,,,-99.99,,2013-02-16 11:52:00,
2013-02-16 05:01:00,19.0,17.0,-100.00,North,-999,-999.0,-999.0,90,-99.99,,,-99.99,,2013-02-16 12:01:00,
2013-02-16 05:12:00,19.0,17.0,-100.00,North,-999,-999.0,-999.0,90,-99.99,,,-99.99,,2013-02-16 12:12:00,
2013-02-16 05:22:00,19.0,16.0,-100.00,North,-999,-999.0,-999.0,89,-99.99,,,-99.99,,2013-02-16 12:22:00,
2013-02-16 05:32:00,19.0,16.0,-100.00,North,-999,-999.0,-999.0,88,-99.99,,,-99.99,,2013-02-16 12:32:00,
2013-02-16 05:42:00,19.0,16.0,-100.00,North,-999,-999.0,-999.0,88,-99.99,,,-99.99,,2013-02-16 12:42:00,
2013-02-16 05:52:00,18.0,16.0,-100.00,North,-999,-999.0,-999.0,90,-99.99,,,-99.99,,2013-02-16 12:52:00,
2013-02-16 06:01:00,19.0,16.0,-100.00,North,-999,-999.0,-999.0,88,-99.99,,,-99.99,,2013-02-16 13:01:00,
2013-02-16 06:11:00,19.0,16.0,-100.00,North,-999,-999.0,-999.0,88,-99.99,,,-99.99,,2013-02-16 13:11:00,
2013-02-16 06:21:00,19.0,16.0,-100.00,North,-999,-999.0,-999.0,88,-99.99,,,-99.99,,2013-02-16 13:21:00,
2013-02-16 06:31:00,19.0,16.0,-100.00,North,-999,-999.0,-999.0,88,-99.99,,,-99.99,,2013-02-16 13:31:00,
2013-02-16 06:41:00,19.0,16.0,-100.00,North,-999,-999.0,-999.0,88,-99.99,,,-99.99,,2013-02-16 13:41:00,
2013-02-16 07:01:00,17.0,15.0,-100.00,North,-999,-999.0,-999.0,92,-99.99,,,-99.99,,2013-02-16 14:01:00,
2013-02-16 07:11:00,17.0,15.0,-100.00,North,-999,-999.0,-999.0,92,-99.99,,,-99.99,,2013-02-16 14:11:00,
2013-02-16 07:21:00,17.0,16.0,-100.00,North,-999,-999.0,-999.0,94,-99.99,,,-99.99,,2013-02-16 14:21:00,
2013-02-16 07:32:00,17.0,15.0,-100.00,North,-999,-999.0,-999.0,93,-99.99,,,-99.99,,2013-02-16 14:32:00,
2013-02-16 07:41:00,17.0,15.0,-100.00,North,-999,-999.0,-999.0,93,-99.99,,,-99.99,,2013-02-16 14:41:00,
2013-02-16 07:52:00,17.0,15.0,-100.00,North,-999,-999.0,-999.0,93,-99.99,,,-99.99,,2013-02-16 14:52:00,
2013-02-16 08:01:00,17.0,16.0,-100.00,North,-999,-999.0,-999.0,94,-99.99,,,-99.99,,2013-02-16 15:01:00,
2013-02-16 08:11:00,17.0,16.0,-100.00,North,-999,-999.0,-999.0,94,-99.99,,,-99.99,,2013-02-16 15:11:00,
2013-02-16 08:21:00,17.0,15.0,-100.00,North,-999,-999.0,-999.0,93,-99.99,,,-99.99,,2013-02-16 15:21:00,
2013-02-16 08:31:00,17.0,15.0,-100.00,North,-999,-999.0,-999.0,93,-99.99,,,-99.99,,2013-02-16 15:31:00,
2013-02-16 08:41:00,17.0,15.0,-100.00,North,-999,-999.0,-999.0,93,-99.99,,,-99.99,,2013-02-16 15:41:00,
2013-02-16 08:52:00,17.0,16.0,-100.00,North,-999,-999.0,-999.0,94,-99.99,,,-99.99,,2013-02-16 15:52:00,
2013-02-16 09:01:00,19.0,17.0,-100.00,North,-999,-999.0,-999.0,91,-99.99,,,-99.99,,2013-02-16 16:01:00,
2013-02-16 09:11:00,19.0,17.0,-100.00,North,-999,-999.0,-999.0,91,-99.99,,,-99.99,,2013-02-16 16:11:00,
2013-02-16 09:21:00,19.0,16.0,-100.00,North,-999,-999.0,-999.0,89,-99.99,,,-99.99,,2013-02-16 16:21:00,
2013-02-16 09:32:00,18.0,16.0,-100.00,North,-999,-999.0,-999.0,91,-99.99,,,-99.99,,2013-02-16 16:32:00,
2013-02-16 09:41:00,18.0,16.0,-100.00,North,-999,-999.0,-999.0,91,-99.99,,,-99.99,,2013-02-16 16:41:00,
2013-02-16 09:52:00,19.0,17.0,-100.00,North,-999,-999.0,-999.0,90,-99.99,,,-99.99,,2013-02-16 16:52:00,
2013-02-16 10:01:00,21.0,17.0,-100.00,North,-999,-999.0,-999.0,86,-99.99,,,-99.99,,2013-02-16 17:01:00,
2013-02-16 10:11:00,21.0,17.0,-100.00,North,-999,-999.0,-999.0,86,-99.99,,,-99.99,,2013-02-16 17:11:00,
2013-02-16 10:21:00,22.0,18.0,-100.00,North,-999,-999.0,-999.0,83,-99.99,,,-99.99,,2013-02-16 17:21:00,
2013-02-16 10:31:00,22.0,17.0,-100.00,North,-999,-999.0,-999.0,82,-99.99,,,-99.99,,2013-02-16 17:31:00,
2013-02-16 10:41:00,22.0,17.0,-100.00,North,-999,-999.0,-999.0,82,-99.99,,,-99.99,,2013-02-16 17:41:00,
2013-02-16 10:52:00,21.0,17.0,-100.00,North,-999,-999.0,-999.0,85,-99.99,,,-99.99,,2013-02-16 17:52:00,
2013-02-16 11:01:00,22.0,17.0,-100.00,North,-999,-999.0,-999.0,82,-99.99,,,-99.99,,2013-02-16 18:01:00,
2013-02-16 11:11:00,22.0,17.0,-100.00,North,-999,-999.0,-999.0,82,-99.99,,,-99.99,,2013-02-16 18:11:00,
2013-02-16 11:21:00,25.0,19.0,-100.00,North,-999,-999.0,-999.0,77,-99.99,,,-99.99,,2013-02-16 18:21:00,
2013-02-16 11:32:00,24.0,18.0,-100.00,North,-999,-999.0,-999.0,79,-99.99,,,-99.99,,2013-02-16 18:32:00,
2013-02-16 11:42:00,24.0,18.0,-100.00,North,-999,-999.0,-999.0,79,-99.99,,,-99.99,,2013-02-16 18:42:00,
2013-02-16 11:52:00,24.0,18.0,-100.00,North,-999,-999.0,-999.0,78,-99.99,,,-99.99,,2013-02-16 18:52:00,
2013-02-16 12:02:00,25.0,18.0,-100.00,North,-999,-999.0,-999.0,75,-99.99,,,-99.99,,2013-02-16 19:02:00,
2013-02-16 12:11:00,25.0,18.0,-100.00,North,-999,-999.0,-999.0,75,-99.99,,,-99.99,,2013-02-16 19:11:00,
2013-02-16 12:21:00,28.0,19.0,-100.00,North,-999,-999.0,-999.0,68,-99.99,,,-99.99,,2013-02-16 19:21:00,
2013-02-16 12:31:00,28.0,19.0,-100.00,North,-999,-999.0,-999.0,68,-99.99,,,-99.99,,2013-02-16 19:31:00,
2013-02-16 12:42:00,28.0,19.0,-100.00,North,-999,-999.0,-999.0,68,-99.99,,,-99.99,,2013-02-16 19:42:00,
2013-02-16 12:52:00,29.0,19.0,-100.00,North,-999,-999.0,-999.0,67,-99.99,,,-99.99,,2013-02-16 19:52:00,
2013-02-16 13:01:00,29.0,19.0,-100.00,North,-999,-999.0,-999.0,65,-99.99,,,-99.99,,2013-02-16 20:01:00,
2013-02-16 13:11:00,29.0,19.0,-100.00,North,-999,-999.0,-999.0,65,-99.99,,,-99.99,,2013-02-16 20:11:00,
2013-02-16 13:21:00,29.0,19.0,-100.00,North,-999,-999.0,-999.0,67,-99.99,,,-99.99,,2013-02-16 20:21:00,
2013-02-16 13:32:00,28.0,18.0,-100.00,North,-999,-999.0,-999.0,67,-99.99,,,-99.99,,2013-02-16 20:32:00,
2013-02-16 13:42:00,28.0,18.0,-100.00,North,-999,-999.0,-999.0,67,-99.99,,,-99.99,,2013-02-16 20:42:00,
2013-02-16 13:52:00,30.0,19.0,-100.00,North,-999,-999.0,-999.0,64,-99.99,,,-99.99,,2013-02-16 20:52:00,
2013-02-16 14:02:00,30.0,19.0,-100.00,North,-999,-999.0,-999.0,63,-99.99,,,-99.99,,2013-02-16 21:02:00,
2013-02-16 14:11:00,30.0,19.0,-100.00,North,-999,-999.0,-999.0,63,-99.99,,,-99.99,,2013-02-16 21:11:00,
2013-02-16 14:21:00,31.0,20.0,-100.00,North,-999,-999.0,-999.0,62,-99.99,,,-99.99,,2013-02-16 21:21:00,
2013-02-16 14:31:00,30.0,19.0,-100.00,North,-999,-999.0,-999.0,64,-99.99,,,-99.99,,2013-02-16 21:31:00,
2013-02-16 14:41:00,30.0,19.0,-100.00,North,-999,-999.0,-999.0,64,-99.99,,,-99.99,,2013-02-16 21:41:00,
2013-02-16 14:52:00,30.0,19.0,-100.00,North,-999,-999.0,-999.0,64,-99.99,,,-99.99,,2013-02-16 21:52:00,
2013-02-16 15:01:00,30.0,20.0,-100.00,North,-999,-999.0,-999.0,66,-99.99,,,-99.99,,2013-02-16 22:01:00,
2013-02-16 15:11:00,30.0,20.0,-100.00,North,-999,-999.0,-999.0,66,-99.99,,,-99.99,,2013-02-16 22:11:00,
2013-02-16 15:21:00,29.0,19.0,-100.00,North,-999,-999.0,-999.0,65,-99.99,,,-99.99,,2013-02-16 22:21:00,
2013-02-16 15:31:00,29.0,19.0,-100.00,North,-999,-999.0,-999.0,65,-99.99,,,-99.99,,2013-02-16 22:31:00,
2013-02-16 15:42:00,29.0,19.0,-100.00,North,-999,-999.0,-999.0,65,-99.99,,,-99.99,,2013-02-16 22:42:00,
2013-02-16 15:52:00,29.0,19.0,-100.00,North,-999,-999.0,-999.0,65,-99.99,,,-99.99,,2013-02-16 22:52:00,
2013-02-16 16:02:00,29.0,19.0,-100.00,North,-999,-999.0,-999.0,65,-99.99,,,-99.99,,2013-02-16 23:02:00,
2013-02-16 16:11:00,29.0,19.0,-100.00,North,-999,-999.0,-999.0,65,-99.99,,,-99.99,,2013-02-16 23:11:00,
2013-02-16 16:21:00,29.0,19.0,-100.00,North,-999,-999.0,-999.0,65,-99.99,,,-99.99,,2013-02-16 23:21:00,
2013-02-16 16:31:00,28.0,18.0,-100.00,North,-999,-999.0,-999.0,66,-99.99,,,-99.99,,2013-02-16 23:31:00,
2013-02-16 16:42:00,28.0,18.0,-100.00,North,-999,-999.0,-999.0,66,-99.99,,,-99.99,,2013-02-16 23:42:00,
2013-02-16 16:52:00,28.0,18.0,-100.00,North,-999,-999.0,-999.0,67,-99.99,,,-99.99,,2013-02-16 23:52:00,
2013-02-16 17:02:00,27.0,18.0,-100.00,North,-999,-999.0,-999.0,68,-99.99,,,-99.99,,2013-02-17 00:02:00,
2013-02-16 17:11:00,27.0,18.0,-100.00,North,-999,-999.0,-999.0,68,-99.99,,,-99.99,,2013-02-17 00:11:00,
2013-02-16 17:21:00,26.0,17.0,-100.00,North,-999,-999.0,-999.0,68,-99.99,,,-99.99,,2013-02-17 00:21:00,
2013-02-16 17:31:00,26.0,17.0,-100.00,North,-999,-999.0,-999.0,69,-99.99,,,-99.99,,2013-02-17 00:31:00,
2013-02-16 17:41:00,26.0,17.0,-100.00,North,-999,-999.0,-999.0,69,-99.99,,,-99.99,,2013-02-17 00:41:00,
2013-02-16 17:52:00,26.0,17.0,-100.00,North,-999,-999.0,-999.0,69,-99.99,,,-99.99,,2013-02-17 00:52:00,
2013-02-16 18:01:00,25.0,17.0,-100.00,North,-999,-999.0,-999.0,71,-99.99,,,-99.99,,2013-02-17 01:01:00,
2013-02-16 18:11:00,25.0,17.0,-100.00,North,-999,-999.0,-999.0,71,-99.99,,,-99.99,,2013-02-17 01:11:00,
2013-02-16 18:21:00,24.0,16.0,-100.00,North,-999,-999.0,-999.0,72,-99.99,,,-99.99,,2013-02-17 01:21:00,
2013-02-16 18:31:00,24.0,16.0,-100.00,North,-999,-999.0,-999.0,72,-99.99,,,-99.99,,2013-02-17 01:31:00,
2013-02-16 18:41:00,24.0,16.0,-100.00,North,-999,-999.0,-999.0,72,-99.99,,,-99.99,,2013-02-17 01:41:00,
2013-02-16 18:52:00,24.0,16.0,-100.00,North,-999,-999.0,-999.0,70,-99.99,,,-99.99,,2013-02-17 01:52:00,
2013-02-16 19:01:00,24.0,16.0,-100.00,North,-999,-999.0,-999.0,70,-99.99,,,-99.99,,2013-02-17 02:01:00,
2013-02-16 19:11:00,24.0,16.0,-100.00,North,-999,-999.0,-999.0,70,-99.99,,,-99.99,,2013-02-17 02:11:00,
2013-02-16 19:21:00,23.0,15.0,-100.00,North,-999,-999.0,-999.0,72,-99.99,,,-99.99,,2013-02-17 02:21:00,
2013-02-16 19:31:00,22.0,15.0,-100.00,North,-999,-999.0,-999.0,74,-99.99,,,-99.99,,2013-02-17 02:31:00,
2013-02-16 19:41:00,22.0,15.0,-100.00,North,-999,-999.0,-999.0,74,-99.99,,,-99.99,,2013-02-17 02:41:00,
2013-02-16 19:52:00,22.0,15.0,-100.00,North,-999,-999.0,-999.0,74,-99.99,,,-99.99,,2013-02-17 02:52:00,
2013-02-16 20:01:00,22.0,16.0,-100.00,North,-999,-999.0,-999.0,76,-99.99,,,-99.99,,2013-02-17 03:01:00,
2013-02-16 20:11:00,22.0,16.0,-100.00,North,-999,-999.0,-999.0,76,-99.99,,,-99.99,,2013-02-17 03:11:00,
2013-02-16 20:21:00,22.0,16.0,-100.00,North,-999,-999.0,-999.0,76,-99.99,,,-99.99,,2013-02-17 03:21:00,
2013-02-16 20:31:00,22.0,15.0,-100.00,North,-999,-999.0,-999.0,75,-99.99,,,-99.99,,2013-02-17 03:31:00,
2013-02-16 20:42:00,22.0,15.0,-100.00,North,-999,-999.0,-999.0,75,-99.99,,,-99.99,,2013-02-17 03:42:00,
2013-02-16 20:52:00,22.0,16.0,-100.00,North,-999,-999.0,-999.0,76,-99.99,,,-99.99,,2013-02-17 03:52:00,
2013-02-16 21:01:00,22.0,16.0,-100.00,North,-999,-999.0,-999.0,76,-99.99,,,-99.99,,2013-02-17 04:01:00,
2013-02-16 21:11:00,22.0,16.0,-100.00,North,-999,-999.0,-999.0,76,-99.99,,,-99.99,,2013-02-17 04:11:00,
2013-02-16 21:21:00,22.0,16.0,-100.00,North,-999,-999.0,-999.0,77,-99.99,,,-99.99,,2013-02-17 04:21:00,
2013-02-16 21:31:00,22.0,15.0,-100.00,North,-999,-999.0,-999.0,75,-99.99,,,-99.99,,2013-02-17 04:31:00,
2013-02-16 21:41:00,22.0,15.0,-100.00,North,-999,-999.0,-999.0,75,-99.99,,,-99.99,,2013-02-17 04:41:00,
2013-02-16 21:52:00,23.0,16.0,-100.00,North,-999,-999.0,-999.0,74,-99.99,,,-99.99,,2013-02-17 04:52:00,
2013-02-16 22:01:00,23.0,16.0,-100.00,North,-999,-999.0,-999.0,74,-99.99,,,-99.99,,2013-02-17 05:01:00,
2013-02-16 22:11:00,23.0,16.0,-100.00,North,-999,-999.0,-999.0,74,-99.99,,,-99.99,,2013-02-17 05:11:00,
2013-02-16 22:22:00,22.0,15.0,-100.00,North,-999,-999.0,-999.0,74,-99.99,,,-99.99,,2013-02-17 05:22:00,
2013-02-16 22:32:00,23.0,16.0,-100.00,North,-999,-999.0,-999.0,73,-99.99,,,-99.99,,2013-02-17 05:32:00,
2013-02-16 22:42:00,23.0,16.0,-100.00,North,-999,-999.0,-999.0,73,-99.99,,,-99.99,,2013-02-17 05:42:00,
2013-02-16 22:52:00,23.0,15.0,-100.00,North,-999,-999.0,-999.0,71,-99.99,,,-99.99,,2013-02-17 05:52:00,
2013-02-16 23:02:00,22.0,14.0,-100.00,North,-999,-999.0,-999.0,71,-99.99,,,-99.99,,2013-02-17 06:02:00,
2013-02-16 23:11:00,22.0,14.0,-100.00,North,-999,-999.0,-999.0,71,-99.99,,,-99.99,,2013-02-17 06:11:00,
2013-02-16 23:21:00,23.0,15.0,-100.00,North,-999,-999.0,-999.0,71,-99.99,,,-99.99,,2013-02-17 06:21:00,
2013-02-16 23:31:00,24.0,15.0,-100.00,North,-999,-999.0,-999.0,68,-99.99,,,-99.99,,2013-02-17 06:31:00,
2013-02-16 23:41:00,24.0,15.0,-100.00,North,-999,-999.0,-999.0,68,-99.99,,,-99.99,,2013-02-17 06:41:00,
2013-02-16 23:52:00,24.0,15.0,-100.00,North,-999,-999.0,-999.0,67,-99.99,,,-99.99,,2013-02-17 06:52:00,